Date String (YYYY-MM-DD hh:mm:ss) UTC,Instrument flags,absolute air pressure of the measurement (hPa),sample flow rate (lpm),inlet stack bypass flow (lpm),air temperature of the measurement (°C),ambient temperature measured by the external sensor (°C),aerosol sample conditioner tube jacket temperature (°C),OPC LED temperature (°C),internal box temperature (°C),relative humidity of the measurement (%),span deviation,mass concentration of particles derived from Lorenz-Mie calculation of OPC scattering (μg/m³),mass concentration of particles derived from Lorenz-Mie calculation of OPC scattering (μg/m³),mass concentration of particles derived from Lorenz-Mie calculation of OPC scattering (μg/m³)
DateTimeUTC,F1_M11,P_M11,Q1_M11,Q2_M11,T1_M11,T2_M11,T3_M11,T4_M11,T5_M11,U1_M11,ZSPAN_M11,X0_M11,X2_M11,X1_M11
2023-07-25 15:00:00,SystemResetWarning,0835.2,5.00,000.00,029.4,027.9,000.0,037.7,031.1,22.3,0000.0,0011.69,0004.59,0003.72
2023-07-25 15:01:00,SystemResetWarning,0835.2,4.98,000.00,029.3,026.3,000.0,037.6,030.8,22.3,0000.0,0011.69,0004.62,0003.72
2023-07-25 15:02:00,SystemResetWarning,0835.2,5.00,000.00,029.3,025.8,000.0,037.5,030.7,23.8,0000.0,0012.00,0004.61,0003.72
2023-07-25 15:03:00,SystemResetWarning,0835.1,5.01,000.00,029.2,026.0,000.0,037.5,030.6,23.5,0000.0,0011.17,0004.56,0003.70
2023-07-25 15:04:00,SystemResetWarning,0835.1,5.00,000.00,029.2,026.3,000.0,037.6,030.6,23.5,0000.0,0011.14,0004.53,0003.69
2023-07-25 15:05:00,SystemResetWarning,0835.1,5.00,000.00,029.2,026.7,000.0,037.6,030.7,23.7,0000.0,0011.28,0004.52,0003.68
2023-07-25 15:06:00,SystemResetWarning,0835.2,5.00,000.00,029.2,027.0,000.0,037.6,030.7,22.9,0000.0,0010.58,0004.41,0003.65
2023-07-25 15:07:00,SystemResetWarning,0835.1,4.99,000.00,029.2,027.3,000.0,037.6,030.8,23.4,0000.0,0009.95,0004.39,0003.65
2023-07-25 15:08:00,SystemResetWarning,0835.1,5.01,000.00,029.2,027.5,000.0,037.6,030.9,23.2,0000.0,0009.62,0004.36,0003.64
2023-07-25 15:09:00,SystemResetWarning,0835.1,4.99,000.00,029.3,027.7,000.0,037.7,030.9,23.1,0000.0,0009.58,0004.37,0003.65
2023-07-25 15:10:00,SystemResetWarning,0835.1,4.99,000.00,029.3,027.9,000.0,037.7,031.0,22.8,0000.0,0009.50,0004.35,0003.66
2023-07-25 15:11:00,SystemResetWarning,0835.2,4.99,000.00,029.3,028.1,000.0,037.7,031.0,22.9,0000.0,0009.34,0004.38,0003.67
2023-07-25 15:12:00,SystemResetWarning,0835.1,5.00,000.00,029.4,028.1,000.0,037.7,031.1,23.1,0000.0,0009.77,0004.41,0003.66
2023-07-25 15:13:00,SystemResetWarning,0835.2,5.00,000.00,029.4,026.6,000.0,037.6,030.9,23.3,0000.0,0009.80,0004.42,0003.66
2023-07-25 15:14:00,SystemResetWarning,0835.1,5.00,000.00,029.3,025.0,000.0,037.5,030.6,23.5,0000.0,0009.77,0004.46,0003.66
2023-07-25 15:15:00,SystemResetWarning,0835.1,5.00,000.00,029.2,024.8,000.0,037.4,030.4,23.2,0000.0,0009.96,0004.51,0003.65
2023-07-25 15:16:00,SystemResetWarning,0835.1,5.01,000.00,029.1,025.2,000.0,037.5,030.3,23.1,0000.0,0010.10,0004.55,0003.65
2023-07-25 15:17:00,SystemResetWarning,0835.0,5.00,000.00,029.0,025.6,000.0,037.5,030.3,23.0,0000.0,0010.77,0004.60,0003.65
2023-07-25 15:18:00,SystemResetWarning,0834.9,4.99,000.00,029.0,026.1,000.0,037.5,030.4,23.8,0000.0,0011.18,0004.64,0003.63
2023-07-25 15:19:00,SystemResetWarning,0835.0,5.00,000.00,029.0,026.5,000.0,037.5,030.5,24.0,0000.0,0011.88,0004.63,0003.61
2023-07-25 15:20:00,SystemResetWarning,0835.0,5.00,000.00,029.0,026.8,000.0,037.5,030.6,24.9,0000.0,0012.30,0004.65,0003.60
2023-07-25 15:21:00,SystemResetWarning,0835.0,5.00,000.00,029.1,027.1,000.0,037.5,030.7,23.5,0000.0,0012.52,0004.66,0003.58
2023-07-25 15:22:00,SystemResetWarning,0835.0,4.99,000.00,029.1,027.4,000.0,037.5,030.7,23.0,0000.0,0012.51,0004.65,0003.58
2023-07-25 15:23:00,SystemResetWarning,0835.1,5.00,000.00,029.1,027.6,000.0,037.6,030.8,23.8,0000.0,0011.90,0004.61,0003.57
2023-07-25 15:24:00,SystemResetWarning,0835.1,5.00,000.00,029.2,027.8,000.0,037.6,030.9,23.4,0000.0,0011.53,0004.62,0003.57
2023-07-25 15:25:00,SystemResetWarning,0835.1,5.00,000.00,029.2,027.9,000.0,037.6,030.9,22.3,0000.0,0011.78,0004.59,0003.56
2023-07-25 15:26:00,SystemResetWarning,0835.1,4.99,000.00,029.2,028.1,000.0,037.6,031.0,22.3,0000.0,0011.86,0004.57,0003.57
2023-07-25 15:27:00,SystemResetWarning,0835.1,4.99,000.00,029.3,028.2,000.0,037.6,031.0,22.3,0000.0,0011.64,0004.57,0003.56
2023-07-25 15:28:00,SystemResetWarning,0835.0,4.99,000.00,029.3,027.5,000.0,037.6,031.0,22.7,0000.0,0011.57,0004.59,0003.56
2023-07-25 15:29:00,SystemResetWarning,0835.0,5.00,000.00,029.3,026.0,000.0,037.5,030.8,22.6,0000.0,0011.45,0004.58,0003.57
2023-07-25 15:30:00,SystemResetWarning,0835.0,5.01,000.00,029.2,025.8,000.0,037.5,030.7,22.5,0000.0,0010.94,0004.56,0003.58
2023-07-25 15:31:00,SystemResetWarning,0834.9,5.01,000.00,029.2,026.0,000.0,037.5,030.5,22.6,0000.0,0010.70,0004.53,0003.59
2023-07-25 15:32:00,SystemResetWarning,0835.0,5.00,000.00,029.1,026.4,000.0,037.5,030.6,23.3,0000.0,0011.05,0004.54,0003.59
2023-07-25 15:33:00,SystemResetWarning,0835.0,5.00,000.00,029.1,026.7,000.0,037.6,030.7,22.4,0000.0,0012.00,0004.57,0003.59
2023-07-25 15:34:00,SystemResetWarning,0835.0,4.99,000.00,029.2,027.1,000.0,037.6,030.7,23.9,0000.0,0012.21,0004.54,0003.61
2023-07-25 15:35:00,SystemResetWarning,0835.0,5.00,000.00,029.2,027.4,000.0,037.6,030.8,24.6,0000.0,0012.35,0004.53,0003.61
2023-07-25 15:36:00,SystemResetWarning,0835.0,4.99,000.00,029.2,027.6,000.0,037.6,030.9,22.0,0000.0,0012.85,0004.59,0003.62
2023-07-25 15:37:00,SystemResetWarning,0835.0,5.00,000.00,029.3,027.8,000.0,037.6,030.9,21.6,0000.0,0013.66,0004.61,0003.63
2023-07-25 15:38:00,SystemResetWarning,0835.0,5.00,000.00,029.3,028.0,000.0,037.7,031.0,22.0,0000.0,0013.96,0004.59,0003.63
2023-07-25 15:39:00,SystemResetWarning,0835.2,5.00,000.00,029.3,028.1,000.0,037.7,031.0,22.1,0000.0,0014.02,0004.57,0003.64
2023-07-25 15:40:00,SystemResetWarning,0834.7,4.99,000.00,029.4,027.9,000.0,037.7,031.1,21.5,0000.0,0013.78,0004.55,0003.63
2023-07-25 15:41:00,SystemResetWarning,0834.7,4.99,000.00,029.3,026.4,000.0,037.6,030.9,21.2,0000.0,0014.00,0004.57,0003.62
2023-07-25 15:42:00,SystemResetWarning,0834.7,5.02,000.00,029.3,025.9,000.0,037.5,030.8,21.6,0000.0,0014.23,0004.57,0003.62
2023-07-25 15:43:00,SystemResetWarning,0834.7,5.01,000.00,029.2,026.2,000.0,037.5,030.7,21.9,0000.0,0013.99,0004.53,0003.62
2023-07-25 15:44:00,SystemResetWarning,0834.8,5.00,000.00,029.2,026.5,000.0,037.6,030.7,22.1,0000.0,0013.77,0004.52,0003.62
2023-07-25 15:45:00,SystemResetWarning,0834.8,5.00,000.00,029.2,026.8,000.0,037.6,030.7,21.8,0000.0,0013.52,0004.54,0003.62
2023-07-25 15:46:00,SystemResetWarning,0834.7,5.00,000.00,029.2,027.2,000.0,037.6,030.8,21.6,0000.0,0013.24,0004.52,0003.61
2023-07-25 15:47:00,SystemResetWarning,0834.8,5.00,000.00,029.3,027.4,000.0,037.6,030.9,21.6,0000.0,0012.32,0004.47,0003.61
2023-07-25 15:48:00,SystemResetWarning,0834.7,5.01,000.00,029.3,027.7,000.0,037.7,030.9,25.0,0000.0,0011.33,0004.40,0003.60
2023-07-25 15:49:00,SystemResetWarning,0834.7,5.00,000.00,029.3,027.9,000.0,037.7,031.0,26.5,0000.0,0011.12,0004.42,0003.59
2023-07-25 15:50:00,SystemResetWarning,0834.7,4.99,000.00,029.4,027.9,000.0,037.7,031.0,27.5,0000.0,0011.21,0004.47,0003.60
2023-07-25 15:51:00,SystemResetWarning,0834.8,4.99,000.00,029.3,026.4,000.0,037.6,030.9,27.3,0000.0,0011.61,0004.51,0003.60
2023-07-25 15:52:00,SystemResetWarning,0834.7,5.02,000.00,029.3,025.1,000.0,037.5,030.7,27.6,0000.0,0011.18,0004.49,0003.59
2023-07-25 15:53:00,SystemResetWarning,0835.0,5.00,000.00,029.2,025.2,000.0,037.4,030.6,26.5,0000.0,0011.35,0004.52,0003.59
2023-07-25 15:54:00,SystemResetWarning,0835.2,4.99,000.00,029.1,025.5,000.0,037.5,030.4,27.5,0000.0,0011.59,0004.54,0003.59
2023-07-25 15:55:00,SystemResetWarning,0835.3,5.00,000.00,029.1,025.9,000.0,037.5,030.5,27.3,0000.0,0010.92,0004.53,0003.59
2023-07-25 15:56:00,SystemResetWarning,0835.2,5.01,000.00,029.1,026.4,000.0,037.5,030.5,25.3,0000.0,0011.14,0004.61,0003.60
2023-07-25 15:57:00,SystemResetWarning,0835.2,5.01,000.00,029.1,026.8,000.0,037.5,030.6,24.4,0000.0,0011.22,0004.61,0003.61
2023-07-25 15:58:00,SystemResetWarning,0835.2,4.98,000.00,029.1,027.1,000.0,037.6,030.7,23.7,0000.0,0011.27,0004.58,0003.61
2023-07-25 15:59:00,SystemResetWarning,0835.1,4.98,000.00,029.1,027.4,000.0,037.6,030.8,25.2,0000.0,0011.36,0004.62,0003.60
